Orbital Elements at Epoch 2456551.5 (2013-Sep-16.0) TDB
Reference: JPL 7 (heliocentric ecliptic J2000)
Element | Value | Uncertainty (1-sigma) | Units |
e | .5960049479202681 | 0.00092099 | |
a | 2.424056523847719 | 0.0054853 | au |
q | .9793068415960728 | 1.6523e-05 | au |
i | 9.049307005961877 | 0.0095416 | deg |
node | 176.4489236166029 | 0.00072223 | deg |
peri | 204.9119606221916 | 0.001804 | deg |
M | 354.0738808668888 | 0.022017 | deg |
tp | 2456574.192399338873 (2013-Oct-08.69239934) | 0.0072835 | TDB |
period | 1378.518315021699 3.77 | 4.6791 0.01281 | d yr |
n | .2611499579491139 | 0.00088641 | deg/d |
Q | 3.868806206099365 | 0.0087545 | au |
|
| | Orbit Determination Parameters
Additional Information
|